Wind_Speed
52 54 61 68 66 63 62 58 58 62 59 54 52 52 46 46 46 50 49 47 45 46 46 48 47 47 49 52 53 53 54 56 59 60 63 64 67 69 70 73 75 79 82 85
51 57 61 64 64 63 66 65 60 59 60 60 57 57 52 49 48 52 50 46 46 44 45 45 45 45 48 52 53 54 55 54 56 59 62 65 67 69 72 74 76 78 80 81
55 60 61 65 65 66 67 67 69 63 62 59 58 59 54 51 49 52 50 48 47 46 46 45 43 44 48 50 52 53 53 52 53 56 60 62 65 68 70 71 72 74 74 75
60 61 65 64 65 66 69 69 69 67 64 60 60 55 53 52 46 45 48 48 48 46 46 47 46 46 49 50 51 53 54 53 52 55 57 59 61 64 66 68 69 71 73 77
68 64 67 67 69 68 69 70 72 71 67 66 54 56 49 48 45 50 51 52 50 44 45 46 45 46 47 46 48 51 53 52 51 52 54 55 57 59 61 64 69 73 77 80
71 69 69 68 67 72 70 71 72 74 68 67 63 64 51 51 51 51 50 50 45 43 45 45 47 48 49 50 50 49 51 53 52 51 53 55 56 59 63 68 72 75 79 85
74 72 72 74 73 70 75 73 74 74 73 60 65 65 56 55 54 54 50 49 47 46 49 50 49 49 50 50 51 52 51 51 52 52 53 56 59 62 65 70 73 77 81 84
76 75 73 76 79 78 75 76 77 75 72 72 69 62 59 60 57 59 56 55 54 52 50 54 50 49 51 53 54 54 53 53 53 54 56 59 61 64 68 70 72 75 78 81
80 77 76 78 81 80 80 75 73 76 76 74 71 66 63 63 62 60 59 59 55 50 53 54 55 53 54 56 53 52 54 55 56 56 57 58 61 64 67 67 69 74 77 78
82 81 79 79 81 81 81 81 79 74 76 73 67 63 56 59 68 70 65 60 55 49 54 57 58 56 54 54 51 53 53 54 57 58 59 59 61 63 63 64 69 73 72 70
82 85 82 83 81 82 84 84 83 80 75 75 70 65 63 63 62 66 66 60 56 55 58 56 56 58 57 57 49 51 53 55 54 56 55 56 57 59 62 66 67 68 67 66
81 87 85 86 86 85 86 84 83 82 75 77 72 66 65 69 66 65 66 61 60 56 60 62 61 59 60 59 50 48 53 53 51 50 50 52 55 60 62 65 63 65 61 60
72 81 91 89 87 86 85 87 86 83 83 76 73 66 68 68 70 70 67 65 62 60 64 63 61 60 59 56 50 52 53 51 50 51 51 53 57 59 63 62 63 63 56 55
76 75 85 91 91 92 90 88 90 91 83 74 68 70 75 73 73 71 69 68 64 63 66 64 63 60 57 55 54 54 51 50 49 51 51 53 54 57 62 62 63 61 53 50
84 75 76 92 96 95 93 92 90 92 87 84 70 68 73 74 74 71 71 70 68 64 63 62 63 61 58 58 58 54 51 48 47 48 49 50 53 57 59 61 60 57 52 48
90 78 76 79 96 100 97 96 93 85 84 81 78 76 69 73 71 70 70 71 70 67 66 64 64 65 62 61 57 53 49 47 47 46 47 51 51 55 56 58 56 50 48 44
93 85 82 76 84 98 104 92 91 90 86 79 79 70 81 78 71 68 67 67 66 65 62 63 66 65 61 58 55 51 49 47 47 47 49 48 49 53 54 52 51 45 45 40
92 94 89 79 87 94 82 95 97 92 86 85 79 77 76 77 76 74 71 65 62 60 59 63 64 61 58 55 53 50 48 47 47 47 46 47 50 51 51 48 49 40 43 41
87 95 92 86 88 80 84 94 98 97 92 88 82 81 79 78 75 68 69 66 64 63 61 59 58 54 55 55 52 52 50 47 46 45 45 49 49 49 47 44 43 40 39 41
82 89 98 93 91 82 81 90 99 100 94 94 88 84 79 77 72 72 72 68 64 62 61 57 55 55 56 55 55 52 48 46 44 45 45 49 50 47 46 44 41 41 41 40
85 90 91 93 91 82 88 91 97 100 94 97 93 89 84 79 76 74 72 68 67 65 62 60 58 57 56 56 53 50 49 45 45 45 47 48 48 45 46 47 45 42 41 42
83 88 94 97 91 81 87 93 96 99 100 98 94 91 88 84 81 78 76 73 71 71 68 66 63 61 60 58 53 50 50 44 46 45 48 49 48 47 47 47 47 48 45 44
80 85 93 97 90 88 90 98 100 103 105 102 97 92 88 85 83 82 80 78 76 73 69 68 65 62 59 55 52 54 44 46 49 49 51 51 48 47 48 48 49 49 48 46
83 86 87 85 85 88 93 95 98 97 95 97 97 95 90 86 83 81 79 78 76 73 71 65 63 60 57 56 56 44 44 53 53 50 51 51 50 49 50 50 51 54 54 50
78 81 79 74 78 85 88 90 90 90 91 91 92 91 90 87 83 80 78 75 73 70 67 64 63 61 59 56 54 49 52 52 59 59 57 54 53 52 53 54 54 56 56 52
73 75 71 68 74 77 82 84 86 86 85 86 83 84 87 85 83 80 75 68 64 63 61 60 60 60 58 55 52 48 44 54 61 60 57 56 56 55 57 58 56 60 58 52
Wind_Direction
240 238 232 230 231 231 236 232 235 238 235 235 236 239 237 242 250 250 244 245 246 249 252 252 254 257 259 260 261 262 263 265 265 265 265 266 265 265 266 268 270 271 272 273
241 236 235 231 227 230 231 231 230 235 240 237 242 238 239 243 248 249 244 247 248 253 254 257 260 262 263 263 264 266 267 266 265 265 266 267 267 267 268 269 271 273 275 277
238 238 234 231 230 228 226 229 231 229 234 237 238 243 239 242 244 246 246 248 250 251 256 259 263 266 268 270 268 268 269 270 269 268 268 268 269 270 271 272 275 278 281 283
238 238 234 231 232 227 225 226 229 230 229 234 236 235 237 237 237 245 246 250 251 253 259 262 267 268 271 273 272 271 270 271 271 269 269 270 271 273 274 277 282 283 284 284
237 238 236 232 231 225 224 229 229 228 229 232 229 230 233 232 235 243 248 249 248 250 256 263 268 271 271 273 273 272 273 274 274 273 272 272 273 276 280 283 285 285 286 287
233 235 233 233 231 225 224 228 229 224 225 229 231 230 230 235 236 239 246 246 247 254 259 261 268 273 275 275 275 274 274 274 274 274 275 277 278 280 281 282 284 286 288 290
228 230 231 228 229 232 226 228 228 230 226 221 229 230 222 240 239 241 243 245 252 257 257 258 266 273 274 276 277 276 275 274 275 277 277 277 279 281 283 284 287 289 291 294
223 228 230 227 227 231 231 229 228 227 230 224 226 229 225 234 245 246 244 248 253 253 254 258 266 272 279 281 280 277 276 275 275 276 278 279 282 283 284 287 290 292 294 298
224 224 227 229 227 230 233 232 230 228 227 227 228 230 233 233 234 241 243 245 249 251 252 255 262 273 277 283 282 279 275 276 276 277 279 282 284 285 287 290 292 295 300 303
224 225 225 226 229 229 232 233 233 231 227 226 226 227 231 234 236 237 241 245 249 250 253 257 262 272 276 283 280 276 277 278 279 280 281 284 285 287 290 294 297 301 305 309
228 226 227 226 226 229 228 233 235 234 230 227 225 225 229 233 237 240 243 247 251 254 256 261 266 272 276 282 281 282 282 282 282 282 283 285 287 290 294 296 302 306 314 312
234 226 225 228 226 227 229 229 235 238 235 230 229 226 231 234 239 246 249 251 253 256 254 260 267 271 276 279 280 284 284 284 283 283 283 286 289 292 296 300 306 314 314 311
239 233 226 226 227 229 229 231 231 233 237 234 234 228 235 239 242 245 250 251 252 253 256 260 266 270 273 277 282 287 284 286 283 281 283 287 291 295 299 305 310 318 312 312
242 238 231 227 227 228 229 230 231 232 233 237 236 234 237 238 240 244 247 249 253 256 258 261 265 269 273 280 285 284 282 283 282 282 284 287 292 298 301 308 313 319 311 318
241 238 235 229 228 227 228 230 231 233 234 234 233 235 239 240 241 244 248 250 254 257 257 260 266 269 274 278 282 280 279 281 282 281 284 289 296 299 304 309 314 315 314 317
241 239 238 233 230 229 227 229 231 232 235 236 236 237 235 238 241 243 245 248 253 255 257 261 265 266 271 275 277 277 279 281 281 281 285 291 296 299 304 308 313 311 316 324
238 240 237 234 234 231 230 228 231 232 232 233 235 233 239 241 243 244 245 247 250 251 255 256 258 263 269 272 275 279 280 278 277 280 285 291 294 298 301 307 312 310 312 320
233 239 237 234 234 233 231 228 230 231 231 234 233 233 237 240 240 243 245 246 249 251 251 252 257 263 266 269 272 275 278 278 275 278 284 289 292 296 299 304 309 309 312 316
230 231 237 233 234 234 229 229 230 231 230 232 232 234 236 239 242 243 245 244 244 247 250 253 257 260 262 266 270 272 276 277 276 278 283 287 291 294 297 304 309 309 309 310
226 227 232 232 231 233 230 229 229 231 230 232 232 233 236 239 241 241 240 242 245 248 251 254 259 261 262 265 268 272 275 275 275 276 280 284 290 293 298 301 308 309 308 308
228 227 229 230 229 227 227 228 228 229 230 232 233 234 235 236 238 241 245 245 247 250 254 257 260 261 263 264 268 270 272 275 273 275 277 282 288 293 298 303 307 306 304 306
229 230 230 231 229 226 226 226 226 228 228 231 231 233 235 236 237 239 241 244 247 251 254 257 260 262 262 264 267 267 270 274 273 274 277 282 282 289 295 300 305 310 304 301
225 225 226 228 228 221 222 221 224 224 225 227 230 232 234 236 238 240 243 245 247 251 256 259 261 261 261 261 259 266 269 265 271 273 278 278 279 286 291 297 302 307 302 299
223 224 224 225 224 219 221 221 223 226 227 229 231 232 233 236 239 242 244 247 250 253 254 255 254 254 255 253 255 262 255 261 267 270 275 276 278 284 290 294 298 301 305 297
222 224 225 224 220 219 221 222 224 226 227 228 230 232 235 237 239 242 245 248 251 252 252 252 248 249 251 252 253 249 256 259 262 268 272 275 280 284 288 292 297 302 303 294
220 221 222 218 217 217 220 221 222 225 227 229 230 232 233 237 239 241 243 243 245 246 246 246 248 250 251 249 247 259 248 258 263 268 271 275 280 285 288 291 296 300 299 292
Height
10488 10495 10496 10498 10510 10520 10526 10532 10537 10541 10547 10553 10557 10558 10566 10571 10578 10579 10580 10584 10589 10591 10594 10594 10596 10597 10598 10598 10599 10599 10599 10599 10598 10598 10598 10597 10596 10594 10592 10589 10586 10583 10579 10576
10474 10477 10478 10489 10497 10505 10512 10517 10522 10528 10533 10541 10546 10548 10556 10564 10564 10568 10572 10575 10577 10582 10582 10583 10585 10586 10586 10585 10587 10588 10587 10586 10585 10584 10583 10582 10581 10580 10577 10574 10572 10568 10564 10561
10459 10461 10467 10475 10482 10489 10496 10503 10505 10512 10520 10528 10534 10539 10546 10550 10554 10558 10561 10564 10568 10569 10570 10572 10575 10576 10574 10575 10576 10575 10574 10574 10573 10571 10570 10568 10565 10563 10561 10559 10555 10552 10548 10544
10447 10448 10453 10460 10467 10474 10482 10486 10491 10499 10505 10516 10523 10531 10535 10539 10544 10547 10549 10553 10556 10558 10559 10560 10564 10566 10563 10564 10564 10563 10563 10562 10560 10559 10556 10554 10551 10548 10546 10543 10540 10535 10530 10524
10430 10433 10438 10447 10452 10459 10467 10471 10477 10485 10494 10502 10514 10519 10522 10527 10534 10532 10535 10543 10547 10548 10547 10548 10551 10554 10553 10554 10553 10552 10551 10550 10548 10546 10544 10541 10539 10536 10534 10530 10524 10518 10511 10503
10413 10416 10424 10431 10435 10443 10451 10457 10462 10469 10479 10495 10498 10506 10513 10516 10514 10519 10526 10531 10535 10537 10537 10539 10540 10541 10542 10542 10542 10542 10541 10539 10537 10534 10531 10529 10527 10525 10520 10515 10509 10502 10495 10487
10391 10400 10406 10414 10421 10429 10437 10440 10447 10457 10467 10485 10481 10492 10510 10497 10501 10507 10516 10520 10524 10526 10527 10529 10530 10530 10530 10530 10530 10529 10528 10527 10525 10522 10520 10517 10515 10511 10506 10499 10493 10487 10477 10470
10373 10382 10388 10397 10405 10411 10416 10423 10434 10445 10455 10463 10465 10485 10495 10488 10490 10493 10504 10508 10511 10513 10516 10518 10518 10519 10519 10519 10518 10517 10515 10513 10511 10510 10508 10505 10502 10497 10490 10485 10479 10470 10463 10455
10354 10365 10371 10380 10387 10392 10403 10411 10416 10426 10436 10446 10460 10471 10476 10480 10479 10478 10485 10493 10498 10502 10505 10507 10509 10509 10509 10508 10507 10505 10502 10501 10499 10497 10495 10492 10488 10482 10476 10471 10464 10456 10450 10440
10338 10348 10353 10361 10370 10380 10386 10394 10399 10411 10422 10434 10448 10456 10464 10465 10463 10466 10472 10477 10486 10491 10493 10496 10497 10497 10497 10497 10495 10493 10491 10489 10487 10485 10482 10479 10473 10468 10463 10457 10450 10443 10434 10421
10317 10327 10338 10344 10354 10358 10369 10377 10383 10393 10407 10421 10433 10446 10448 10451 10453 10456 10460 10468 10474 10477 10480 10483 10484 10485 10485 10485 10483 10481 10478 10476 10475 10472 10469 10465 10460 10455 10450 10443 10437 10429 10418 10405
10293 10306 10320 10325 10335 10342 10351 10363 10369 10378 10398 10406 10417 10434 10436 10437 10440 10443 10448 10455 10459 10465 10468 10470 10471 10473 10474 10473 10473 10471 10467 10465 10462 10460 10456 10453 10448 10443 10437 10431 10425 10415 10404 10393
10273 10286 10295 10306 10319 10330 10340 10345 10352 10360 10369 10392 10403 10428 10421 10424 10426 10429 10434 10439 10445 10452 10455 10457 10458 10461 10461 10461 10461 10458 10455 10453 10451 10448 10445 10441 10436 10431 10424 10418 10411 10402 10393 10383
10247 10261 10278 10294 10298 10304 10318 10324 10332 10340 10355 10377 10394 10401 10400 10405 10409 10414 10419 10424 10431 10438 10441 10443 10444 10448 10449 10448 10448 10446 10444 10442 10440 10437 10434 10430 10425 10420 10412 10406 10398 10391 10382 10373
10222 10241 10252 10266 10273 10284 10296 10304 10313 10326 10344 10354 10375 10384 10383 10388 10394 10402 10406 10412 10417 10423 10426 10429 10430 10432 10435 10436 10436 10435 10432 10431 10428 10425 10422 10419 10414 10408 10401 10395 10389 10380 10371 10363
10199 10223 10232 10243 10253 10261 10273 10285 10300 10316 10327 10346 10355 10367 10368 10364 10377 10386 10392 10396 10401 10407 10412 10415 10415 10416 10421 10422 10422 10421 10420 10418 10416 10414 10411 10408 10404 10396 10390 10385 10381 10373 10364 10355
10180 10199 10209 10224 10226 10238 10246 10279 10286 10296 10308 10325 10338 10346 10339 10356 10367 10372 10377 10382 10389 10394 10399 10400 10398 10403 10407 10407 10407 10407 10406 10405 10404 10402 10399 10396 10392 10386 10381 10375 10372 10365 10357 10350
10165 10170 10179 10201 10198 10198 10255 10258 10264 10278 10293 10302 10319 10321 10327 10336 10345 10352 10363 10371 10377 10381 10384 10382 10385 10392 10391 10394 10395 10394 10393 10392 10392 10390 10388 10385 10381 10377 10371 10365 10361 10357 10349 10342
10138 10141 10153 10170 10179 10205 10218 10235 10245 10256 10272 10281 10296 10303 10311 10318 10328 10345 10346 10352 10356 10360 10364 10367 10371 10376 10377 10379 10382 10381 10381 10380 10379 10378 10376 10373 10370 10366 10361 10356 10350 10346 10341 10334
10107 10116 10120 10141 10156 10181 10210 10213 10221 10233 10254 10262 10274 10284 10295 10303 10319 10320 10320 10332 10342 10345 10347 10352 10358 10361 10363 10365 10366 10367 10367 10366 10366 10366 10365 10362 10358 10355 10350 10346 10341 10336 10330 10325
10080 10087 10101 10118 10135 10164 10176 10187 10200 10211 10235 10237 10254 10265 10277 10286 10297 10305 10311 10320 10324 10329 10335 10338 10342 10346 10348 10349 10352 10353 10353 10354 10353 10354 10353 10351 10347 10343 10338 10333 10330 10326 10321 10316
10057 10069 10081 10094 10115 10148 10152 10166 10180 10192 10203 10213 10230 10242 10256 10267 10277 10285 10293 10301 10307 10312 10318 10322 10325 10330 10333 10334 10337 10339 10339 10342 10339 10341 10340 10339 10336 10332 10328 10323 10319 10314 10311 10306
10030 10039 10051 10067 10096 10113 10124 10131 10143 10156 10172 10190 10209 10225 10238 10249 10260 10269 10277 10285 10292 10298 10304 10307 10311 10313 10317 10319 10322 10324 10327 10326 10327 10327 10326 10325 10323 10320 10317 10313 10308 10304 10300 10295
10002 10015 10030 10052 10073 10091 10095 10114 10128 10147 10167 10182 10197 10209 10220 10233 10244 10252 10260 10268 10277 10283 10287 10292 10296 10299 10302 10305 10306 10310 10314 10314 10313 10313 10313 10310 10309 10308 10304 10301 10297 10292 10287 10284
9985 9998 10019 10039 10058 10073 10087 10101 10119 10136 10151 10165 10180 10196 10209 10219 10229 10238 10245 10253 10259 10265 10271 10276 10280 10285 10288 10290 10292 10297 10300 10301 10299 10299 10299 10297 10294 10294 10291 10288 10285 10280 10275 10271
9971 9985 10002 10026 10041 10060 10073 10087 10104 10120 10135 10151 10168 10181 10193 10204 10214 10221 10229 10236 10244 10250 10255 10260 10266 10270 10274 10276 10279 10282 10284 10286 10284 10283 10284 10283 10281 10279 10276 10274 10271 10266 10263 10258